Preview of NWS' New Version of Forecast
This preview is not operational and should not be used for support decisions.

Regional Weather Roundup (RWR)

Issued by Philadelphia/Mt Holly (PHI)

                            
000
ASUS41 KPHI 231112
RWRPHI

REGIONAL WEATHER ROUNDUP
NATIONAL WEATHER SERVICE MOUNT HOLLY NJ
700 AM EDT SAT MAR 23 2019

NOTE:  "FAIR" INDICATES FEW OR NO CLOUDS BELOW 12,000 FEET WITH NO
SIGNIFICANT WEATHER AND/OR OBSTRUCTIONS TO VISIBILITY.

 * = STATION DOES NOT REPORT PRECIPITATION (E.G. RAIN, SNOW, ETC.) 
        OR FOG.

NJZ015>026-231200-
SOUTHERN NEW JERSEY
  
CITY           SKY/WX    TMP DP  RH WIND       PRES   REMARKS
POMONA         FAIR      35  23  61 W18G36    29.81R WCI  24          
WILDWOOD*      MOCLDY    36  24  62 NW21G33   29.89R WCI  25          
MILLVILLE      FAIR      34  22  61 W16G24    29.86R WCI  24          
MOUNT HOLLY    FAIR      35  20  54 W15G25    29.82R WCI  25          
TRENTON        FAIR      34  21  59 W16G30    29.79R WCI  24          

$$
NJZ001>014-231200-
NORTHERN NEW JERSEY
  
CITY           SKY/WX    TMP DP  RH WIND       PRES   REMARKS
SUSSEX         CLOUDY    32  22  66 MISG      29.74R                  
ANDOVER*         N/A     31  20  63 W8G26     29.75R WCI  23          
MORRISTOWN     MOCLDY    34  23  64 NW17G30   29.73R WCI  23          
NEWARK         MOCLDY    35  21  56 W17G29    29.73R WCI  25          
TETERBORO      MOCLDY    35  21  56 W20G31    29.71R WCI  24          
CALDWELL       CLOUDY    34  21  59 NW22G37   29.73R WCI  22          
SOMERVILLE     FAIR      35  21  56 NW17G30   29.75R WCI  25          
ALLAIRE*       FAIR      35  21  56 W22G29    29.74R WCI  23          
TOMS RIVER*    FAIR      35  22  58 W25G32    29.77R WCI  23          

$$
PAZ043-044-047-054-055-060>062-066>071-231200-
EASTERN PENNSYLVANIA
  
CITY           SKY/WX    TMP DP  RH WIND       PRES   REMARKS
PHILADELPHIA   MOCLDY    36  20  52 W15G24    29.86R WCI  27          
NORTH PHILA    FAIR      37  20  50 W18G29    29.83R WCI  27          
BLUE BELL*     FAIR      32  21  64 NW10G22   29.84R WCI  24          
DOYLESTOWN     FAIR      33  20  58 NW17G29   29.80R WCI  22          
QUAKERTOWN*    CLEAR     34  19  55 W14G23    29.82  WCI  24          
PERKASIE*      PTSUNNY   32  19  59 NW17G32   29.81R WCI  21          
POTTSTOWN      FAIR      33  21  61 NW14G28   29.85R WCI  23          
LANCASTER      FAIR      34  22  61 W22G30    29.89R WCI  22          
COATESVILLE    FAIR      32  21  64 NW25      29.85R WCI  19          
READING        CLOUDY    34  23  64 W14       29.87R WCI  25          
ALLENTOWN      CLOUDY    35  20  54 W16G25    29.82R WCI  25          
MOUNT POCONO   CLOUDY    24  20  84 W29G40    29.69R WCI   7          
HAZLETON       CLOUDY    30  19  64 W15G23    29.82R WCI  19          
LEHIGHTON      CLOUDY    32  21  64 W9        29.84R WCI  24          
WILKES BARRE   CLOUDY    30  21  69 NW21G26   29.82R WCI  17          

$$
DEZALL-MDZ008-012-015-019-020-231200-
DELAWARE AND EASTERN MARYLAND
  
CITY           SKY/WX    TMP DP  RH WIND       PRES   REMARKS
WILMINGTON     FAIR      34  21  59 NW23G31   29.88R WCI  22          
GEORGETOWN     FAIR      38  22  52 NW12G25   29.92R WCI  30          
EASTON         CLEAR     36  25  64 W17G23    29.99R WCI  25          
PATUXENT       FAIR      38  24  57 W21       29.97R WCI  28          
OCEAN CITY     FAIR      36  24  62 NW15G23   29.92R WCI  27          
WALLOPS ISLAND FAIR      39  23  52 W18G26    29.95R WCI  30          
CAMBRIDGE      CLEAR     37  23  56 NW17G29   29.96R WCI  28          
SALISBURY      FAIR      37  24  59 W14G24    29.94R WCI  28          

$$
PAZ001-021-NYZ056-072-MDZ011-DCZ001-231200-
OTHER NEARBY LOCATIONS
  
CITY           SKY/WX    TMP DP  RH WIND       PRES   REMARKS
HARRISBURG     FAIR      34  22  61 NW20      29.92R WCI  23          
STATE COLLEGE  PTCLDY    28  18  64 NW20G25   29.96R WCI  15          
WILLIAMSPORT   CLOUDY    32  19  58 NW16      29.91R WCI  21          
BINGHAMTON     CLOUDY    21  14  74 NW22G33   29.79R WCI   5          
NEW YORK CITY  CLOUDY    35  20  54 MISG      29.72R                  
BALTIMORE      FAIR      34  22  61 W16G25    29.95R WCI  24          
WASHINGTON DC  FAIR      37  21  52 NW14G23   30.00R WCI  28          

$$